When you browse on this site, cookies collect data to enhance your experience and personalize the content and advertising you see.
Visit our Privacy Policy to learn more. By continuing to use the site, you agree to this use of cookies and data.
  • en Suisse
  • Liste des pays
  • À 7 jours
  • Température de l'eau
  • Carte météo
  • Widgets météo
  • user-avatar
    Se connecter

    Météo par heure à Segedyn

    Ce jour, 25 Mai, Lundi

    Heure Température Précipitation Vent Pression Humidité
    00:00 +10°C° 0 mm 3 m/s 761 mmHg 76%
    01:00 +10°C° 0 mm 3 m/s 761 mmHg 76%
    02:00 +10°C° 0 mm 4 m/s 761 mmHg 77%
    03:00 +10°C° 0 mm 4 m/s 761 mmHg 77%
    04:00 +10°C° 0 mm 4 m/s 761 mmHg 77%
    05:00 +10°C° 0 mm 5 m/s 761 mmHg 73%
    06:00 +13°C° 0 mm 6 m/s 762 mmHg 68%
    07:00 +14°C° 0 mm 6 m/s 762 mmHg 63%
    08:00 +15°C° 0.1 mm 6 m/s 762 mmHg 61%
    09:00 +16°C° 0.1 mm 6 m/s 762 mmHg 60%
    10:00 +17°C° 0.1 mm 6 m/s 762 mmHg 58%
    11:00 +17°C° 0.7 mm 7 m/s 761 mmHg 59%
    12:00 +17°C° 0.7 mm 7 m/s 761 mmHg 60%
    13:00 +17°C° 0.7 mm 7 m/s 760 mmHg 61%
    14:00 +17°C° 0.5 mm 7 m/s 760 mmHg 61%
    15:00 +17°C° 0.5 mm 7 m/s 759 mmHg 61%
    16:00 +17°C° 0.5 mm 7 m/s 759 mmHg 61%
    17:00 +16°C° 0.2 mm 6 m/s 759 mmHg 66%
    18:00 +15°C° 0.2 mm 5 m/s 759 mmHg 71%
    19:00 +13°C° 0.2 mm 4 m/s 759 mmHg 77%
    20:00 +13°C° 0.1 mm 4 m/s 759 mmHg 80%
    21:00 +12°C° 0.1 mm 4 m/s 759 mmHg 83%
    22:00 +11°C° 0.1 mm 3 m/s 760 mmHg 86%
    23:00 +11°C° 0.4 mm 3 m/s 760 mmHg 88%

    Demain, 26 Mai, Mardi

    Heure Température Précipitation Vent Pression Humidité
    00:00 +10°C° 0.4 mm 3 m/s 760 mmHg 90%
    01:00 +10°C° 0.4 mm 3 m/s 760 mmHg 93%
    02:00 +10°C° 0.1 mm 3 m/s 760 mmHg 91%
    03:00 +10°C° 0.1 mm 4 m/s 760 mmHg 90%
    04:00 +10°C° 0.1 mm 4 m/s 760 mmHg 88%
    05:00 +11°C° 0 mm 4 m/s 760 mmHg 84%
    06:00 +12°C° 0 mm 5 m/s 760 mmHg 80%
    07:00 +13°C° 0 mm 6 m/s 761 mmHg 76%
    08:00 +14°C° 0 mm 6 m/s 761 mmHg 71%
    09:00 +16°C° 0 mm 6 m/s 761 mmHg 66%
    10:00 +17°C° 0 mm 6 m/s 761 mmHg 61%
    11:00 +19°C° 0.4 mm 6 m/s 760 mmHg 61%
    12:00 +19°C° 0.4 mm 6 m/s 760 mmHg 60%
    13:00 +20°C° 0.4 mm 7 m/s 759 mmHg 59%
    14:00 +20°C° 0.7 mm 7 m/s 759 mmHg 60%
    15:00 +20°C° 0.7 mm 7 m/s 759 mmHg 60%
    16:00 +20°C° 0.7 mm 7 m/s 759 mmHg 60%
    17:00 +17°C° 0.5 mm 6 m/s 759 mmHg 66%
    18:00 +16°C° 0.5 mm 5 m/s 759 mmHg 72%
    19:00 +15°C° 0.5 mm 4 m/s 759 mmHg 78%
    20:00 +14°C° 0 mm 4 m/s 759 mmHg 80%
    21:00 +13°C° 0 mm 4 m/s 760 mmHg 81%
    22:00 +12°C° 0 mm 4 m/s 760 mmHg 83%
    23:00 +12°C° 0 mm 4 m/s 760 mmHg 84%

    Après-demain, 27 Mai, Mercredi

    Heure Température Précipitation Vent Pression Humidité
    00:00 +11°C° 0 mm 4 m/s 760 mmHg 84%
    01:00 +11°C° 0 mm 4 m/s 760 mmHg 85%
    02:00 +10°C° 0 mm 4 m/s 760 mmHg 85%
    03:00 +10°C° 0 mm 4 m/s 760 mmHg 84%
    04:00 +10°C° 0 mm 4 m/s 760 mmHg 84%
    05:00 +10°C° 0 mm 5 m/s 760 mmHg 79%
    06:00 +13°C° 0 mm 6 m/s 761 mmHg 75%
    07:00 +15°C° 0 mm 7 m/s 761 mmHg 70%
    08:00 +16°C° 0 mm 7 m/s 761 mmHg 67%
    09:00 +17°C° 0 mm 7 m/s 761 mmHg 64%
    10:00 +18°C° 0 mm 7 m/s 761 mmHg 62%
    11:00 +20°C° 0.2 mm 7 m/s 761 mmHg 61%
    12:00 +20°C° 0.2 mm 6 m/s 760 mmHg 60%
    13:00 +21°C° 0.2 mm 6 m/s 760 mmHg 59%
    14:00 +21°C° 0.2 mm 6 m/s 760 mmHg 59%
    15:00 +20°C° 0.2 mm 6 m/s 760 mmHg 60%
    16:00 +20°C° 0.2 mm 5 m/s 759 mmHg 60%
    17:00 +19°C° 0.1 mm 4 m/s 759 mmHg 66%
    18:00 +18°C° 0.1 mm 4 m/s 759 mmHg 72%
    19:00 +17°C° 0.1 mm 3 m/s 759 mmHg 79%
    20:00 +16°C° 0 mm 3 m/s 760 mmHg 80%
    21:00 +14°C° 0 mm 3 m/s 760 mmHg 82%
    22:00 +13°C° 0 mm 3 m/s 760 mmHg 84%
    23:00 +13°C° 0 mm 3 m/s 760 mmHg 85%

    28 Mai, Jeudi

    Heure Température Précipitation Vent Pression Humidité
    00:00 +12°C° 0 mm 3 m/s 759 mmHg 86%
    01:00 +12°C° 0 mm 3 m/s 759 mmHg 87%
    02:00 +12°C° 0 mm 3 m/s 759 mmHg 87%
    03:00 +11°C° 0 mm 3 m/s 759 mmHg 87%
    04:00 +11°C° 0 mm 3 m/s 759 mmHg 88%
    05:00 +12°C° 0 mm 3 m/s 759 mmHg 83%
    06:00 +14°C° 0 mm 4 m/s 759 mmHg 79%
    07:00 +15°C° 0 mm 4 m/s 759 mmHg 74%
    08:00 +18°C° 0 mm 4 m/s 759 mmHg 68%
    09:00 +19°C° 0 mm 4 m/s 759 mmHg 62%
    10:00 +20°C° 0 mm 4 m/s 759 mmHg 56%
    11:00 +21°C° 0 mm 4 m/s 758 mmHg 53%
    12:00 +22°C° 0 mm 4 m/s 758 mmHg 49%
    13:00 +23°C° 0 mm 4 m/s 757 mmHg 46%
    14:00 +22°C° 0 mm 4 m/s 757 mmHg 46%
    15:00 +22°C° 0 mm 3 m/s 756 mmHg 46%
    16:00 +22°C° 0 mm 3 m/s 756 mmHg 47%
    17:00 +20°C° 0.1 mm 3 m/s 756 mmHg 54%
    18:00 +19°C° 0.1 mm 2 m/s 756 mmHg 62%
    19:00 +17°C° 0.1 mm 2 m/s 756 mmHg 69%
    20:00 +16°C° 0.2 mm 2 m/s 756 mmHg 75%
    21:00 +14°C° 0.2 mm 3 m/s 756 mmHg 81%
    22:00 +13°C° 0.2 mm 3 m/s 756 mmHg 86%
    23:00 +12°C° 0 mm 3 m/s 756 mmHg 87%

    29 Mai, Vendredi

    Heure Température Précipitation Vent Pression Humidité
    00:00 +12°C° 0 mm 3 m/s 756 mmHg 87%
    01:00 +12°C° 0 mm 3 m/s 756 mmHg 88%
    02:00 +12°C° 0 mm 3 m/s 756 mmHg 88%
    03:00 +11°C° 0 mm 3 m/s 756 mmHg 88%
    04:00 +11°C° 0 mm 3 m/s 756 mmHg 89%
    05:00 +12°C° 0.1 mm 3 m/s 757 mmHg 86%
    06:00 +13°C° 0.1 mm 3 m/s 757 mmHg 83%
    07:00 +14°C° 0.1 mm 3 m/s 757 mmHg 80%
    08:00 +16°C° 0.2 mm 3 m/s 757 mmHg 73%
    09:00 +17°C° 0.2 mm 3 m/s 757 mmHg 66%
    10:00 +19°C° 0.2 mm 4 m/s 757 mmHg 59%
    11:00 +19°C° 0.5 mm 4 m/s 757 mmHg 58%
    12:00 +19°C° 0.5 mm 4 m/s 757 mmHg 57%
    13:00 +20°C° 0.5 mm 4 m/s 756 mmHg 56%
    14:00 +20°C° 0.3 mm 4 m/s 756 mmHg 56%
    15:00 +20°C° 0.3 mm 4 m/s 756 mmHg 57%
    16:00 +20°C° 0.3 mm 4 m/s 755 mmHg 57%
    17:00 +18°C° 0.2 mm 3 m/s 756 mmHg 64%
    18:00 +17°C° 0.2 mm 3 m/s 756 mmHg 70%
    19:00 +16°C° 0.2 mm 2 m/s 756 mmHg 77%
    20:00 +15°C° 0 mm 2 m/s 756 mmHg 77%
    21:00 +14°C° 0 mm 2 m/s 757 mmHg 77%
    22:00 +14°C° 0 mm 2 m/s 757 mmHg 77%
    23:00 +13°C° 0 mm 2 m/s 757 mmHg 77%

    30 Mai, Samedi

    Heure Température Précipitation Vent Pression Humidité
    00:00 +12°C° 0 mm 2 m/s 757 mmHg 77%
    01:00 +10°C° 0 mm 3 m/s 757 mmHg 77%
    02:00 +10°C° 0 mm 3 m/s 757 mmHg 76%
    03:00 +9°C° 0 mm 2 m/s 757 mmHg 76%
    04:00 +8°C° 0 mm 2 m/s 757 mmHg 75%
    05:00 +10°C° 0 mm 3 m/s 757 mmHg 71%
    06:00 +11°C° 0 mm 3 m/s 758 mmHg 68%
    07:00 +12°C° 0 mm 3 m/s 758 mmHg 64%
    08:00 +13°C° 0 mm 3 m/s 758 mmHg 60%
    09:00 +15°C° 0 mm 2 m/s 758 mmHg 56%
    10:00 +16°C° 0 mm 2 m/s 758 mmHg 53%
    11:00 +17°C° 0 mm 2 m/s 758 mmHg 51%
    12:00 +18°C° 0 mm 2 m/s 757 mmHg 49%
    13:00 +20°C° 0 mm 1 m/s 757 mmHg 47%
    14:00 +20°C° 0 mm 1 m/s 757 mmHg 47%
    15:00 +20°C° 0 mm 1 m/s 757 mmHg 47%
    16:00 +20°C° 0 mm 1 m/s 756 mmHg 48%
    17:00 +19°C° 0 mm 1 m/s 756 mmHg 52%
    18:00 +18°C° 0 mm 1 m/s 756 mmHg 57%
    19:00 +16°C° 0 mm 1 m/s 756 mmHg 62%
    20:00 +15°C° 0 mm 1 m/s 756 mmHg 63%
    21:00 +14°C° 0 mm 1 m/s 757 mmHg 64%
    22:00 +13°C° 0 mm 1 m/s 757 mmHg 65%
    23:00 +13°C° 0 mm 1 m/s 757 mmHg 66%
    Voir plus